Wind_Speed
4 4 4 4 4 4 4 3 4 4 3 3 3 4 4 4 5 5 5 5 5 6 5 5 5 5 5 5 5 4 4 4 4 3 3 3 3 4 3 4 4 4 4
3 3 3 3 3 3 3 3 3 4 4 4 4 4 5 5 4 5 6 6 7 7 7 7 7 7 7 6 6 5 5 5 5 5 5 5 5 5 4 4 4 5 5
3 2 2 2 2 3 3 3 3 3 4 5 5 5 5 5 5 6 6 7 8 8 8 8 9 8 8 8 8 7 7 7 7 6 6 6 6 5 5 6 6 6 6
2 2 1 1 2 2 3 3 2 3 4 5 6 5 6 7 7 7 7 8 8 9 9 9 9 9 10 10 10 9 9 9 8 8 7 7 7 7 7 7 7 7 7
2 2 1 1 2 3 3 3 4 4 4 5 5 6 6 7 8 9 9 9 9 9 9 9 10 9 10 10 10 10 10 10 10 9 9 8 7 8 8 8 8 8 8
2 1 0 1 2 3 3 4 5 5 5 6 6 7 7 7 8 8 10 10 10 10 9 9 10 10 10 10 11 11 11 11 10 10 10 10 9 9 9 9 10 9 9
2 1 1 2 2 3 3 5 6 6 6 6 7 7 8 9 9 9 9 10 10 11 10 10 10 10 10 10 11 12 12 11 11 11 11 10 10 10 11 11 11 10 10
3 3 3 3 4 4 4 5 6 6 6 7 7 8 8 9 9 10 10 10 10 10 10 10 10 10 11 11 11 12 12 13 13 13 13 12 12 11 12 12 11 11 11
5 4 4 4 4 4 4 5 6 6 6 7 7 7 7 8 9 10 10 10 10 11 11 11 11 10 11 12 12 13 13 13 13 14 14 14 14 13 13 12 12 12 12
6 6 6 6 6 6 6 6 5 6 7 7 8 8 8 8 9 9 10 10 11 11 11 12 12 12 12 13 13 13 13 14 14 15 15 15 15 15 14 13 13 13 13
7 7 7 7 6 7 7 7 7 7 8 8 9 9 10 10 10 10 10 11 12 12 13 13 12 13 14 14 14 14 14 14 15 15 16 16 16 16 15 15 15 15 15
8 8 8 8 8 8 7 8 8 8 9 10 10 10 11 11 12 12 11 11 12 12 13 13 14 14 14 14 14 15 16 15 16 16 17 17 17 17 17 17 17 17 17
9 9 10 9 9 9 9 9 9 9 10 10 11 11 12 12 12 12 12 13 13 14 14 14 14 14 15 15 14 15 16 17 17 17 17 18 18 19 19 19 19 18 18
10 10 10 10 10 11 10 10 10 10 11 12 12 12 12 13 13 13 14 14 15 15 15 15 16 15 15 15 16 17 17 18 19 19 18 18 18 18 19 20 20 20 20
11 11 11 12 12 11 11 11 12 12 13 13 13 13 13 13 14 15 15 16 16 16 16 16 17 16 16 16 17 18 18 19 20 20 20 20 20 20 20 21 21 22 22
13 13 12 12 13 13 13 13 13 13 14 14 14 14 14 14 14 15 16 16 17 17 17 17 17 18 18 18 19 19 19 20 20 21 21 21 22 22 23 23 23 23 24
14 14 14 14 14 15 14 14 14 14 15 15 15 16 16 16 17 17 17 17 18 18 18 18 18 19 20 20 20 20 21 21 22 22 22 23 23 24 24 24 25 25 26
16 16 16 16 16 15 15 15 15 16 16 16 17 18 18 19 19 19 19 19 19 20 20 21 21 21 22 22 22 21 22 22 23 24 24 24 25 25 25 25 26 26 26
18 18 18 17 18 17 17 16 16 17 17 18 19 19 20 21 21 22 21 21 21 21 22 22 23 23 23 23 22 22 23 23 24 25 25 26 26 26 27 27 27 27 27
20 20 20 19 19 19 19 18 19 19 19 20 21 20 21 22 23 23 23 23 23 23 23 24 24 24 24 24 24 24 24 25 25 26 26 27 27 28 27 28 28 28 28
23 23 22 21 21 21 21 21 21 22 22 22 22 22 22 23 23 24 23 24 24 24 24 24 24 24 24 25 24 24 25 25 26 27 27 28 28 28 28 28 28 29 29
25 25 24 24 24 24 24 24 24 24 24 25 25 25 26 26 26 26 25 25 25 24 24 24 24 24 24 25 25 25 25 26 27 28 28 28 28 29 29 29 29 30 30
27 27 27 27 27 27 27 26 26 26 27 28 28 28 28 28 28 28 27 27 26 26 25 25 25 25 26 26 27 27 27 28 28 28 28 28 29 29 30 30 31 31 31
29 29 29 29 29 29 28 28 28 28 28 29 30 30 30 30 30 30 29 28 28 27 27 27 26 27 27 27 28 28 29 29 29 29 29 29 29 30 30 31 31 31 31
31 31 31 31 30 30 31 31 31 31 31 31 31 31 31 32 32 32 31 30 30 29 29 28 28 28 28 28 28 29 29 29 30 30 31 31 30 31 31 31 31 32 32
31 31 32 32 32 32 32 32 33 33 33 33 32 32 33 33 33 32 31 30 30 30 30 29 29 29 29 29 30 30 30 30 30 31 32 32 32 32 32 31 32 32 32
Wind_Direction
129 143 156 168 178 181 191 202 214 227 239 238 229 230 232 239 238 235 232 231 234 237 240 244 242 240 240 238 242 248 252 260 263 269 276 283 285 292 293 290 277 274 274
115 138 149 169 186 193 194 203 220 240 250 248 238 236 241 238 234 242 239 240 243 244 245 246 244 245 244 243 247 251 260 263 265 270 273 275 279 281 284 282 286 278 277
101 121 145 158 177 196 215 213 222 237 246 242 240 240 244 237 241 244 246 245 246 248 252 250 245 245 246 250 252 256 258 258 265 272 274 275 276 278 276 277 280 283 281
98 103 141 186 197 210 220 222 241 250 250 246 247 249 246 247 248 252 254 253 254 253 254 258 249 251 249 251 254 255 254 259 263 266 270 273 273 274 274 277 281 281 282
87 94 138 196 224 229 236 241 244 252 257 253 253 256 260 260 258 260 259 259 260 261 259 254 251 256 253 252 253 253 255 258 262 261 263 268 274 277 272 276 279 279 279
61 56 201 238 247 249 246 245 252 253 251 252 256 257 262 265 266 263 262 263 262 263 262 255 253 252 252 253 252 253 256 258 261 260 262 265 272 276 273 276 276 278 280
30 23 330 278 280 279 265 255 255 256 255 257 265 267 266 265 265 267 267 268 266 263 259 255 255 253 255 256 254 255 255 256 258 259 262 266 270 271 273 275 275 276 279
4 357 338 315 302 297 287 280 270 264 260 258 263 269 270 270 270 268 266 267 268 262 262 260 254 255 260 258 256 257 255 256 257 259 261 265 268 272 273 273 273 274 275
358 351 341 334 316 305 297 292 282 277 272 268 268 271 273 274 271 271 271 269 270 270 270 267 263 262 263 260 257 259 256 256 258 260 261 264 267 269 272 272 269 272 274
344 334 329 323 312 302 296 293 288 278 270 270 271 272 274 276 277 275 273 271 271 269 270 269 266 266 265 261 258 259 258 259 260 260 261 262 265 268 269 270 269 270 272
337 332 322 314 306 301 299 296 286 278 270 270 272 270 271 274 277 277 274 273 271 269 269 271 269 267 267 265 261 261 262 261 260 261 263 263 265 266 267 269 269 269 270
334 329 320 312 305 298 296 292 288 279 271 269 271 271 272 273 275 274 269 271 272 272 272 272 274 271 268 267 265 265 264 264 262 263 264 264 264 265 264 265 266 266 268
326 325 320 310 301 297 294 287 286 282 277 276 277 277 275 275 275 274 267 268 271 273 273 274 275 272 269 268 268 269 268 267 264 265 265 265 265 265 264 265 267 267 268
317 315 313 307 299 296 296 290 286 286 283 283 281 281 279 277 276 274 270 269 270 273 273 273 274 273 269 268 268 270 270 269 266 265 265 264 265 265 267 269 271 268 270
311 309 306 302 299 296 296 294 290 290 287 283 282 281 280 279 276 275 275 273 273 273 273 274 275 275 272 270 269 270 270 270 268 266 265 265 267 268 269 271 271 269 270
304 303 302 300 293 293 291 290 288 288 287 282 280 280 280 280 279 278 277 277 276 274 273 274 274 274 272 269 268 268 269 268 270 269 266 266 266 267 269 270 269 269 269
300 298 295 294 292 289 288 288 286 288 288 285 282 281 280 279 279 278 277 276 275 275 273 271 271 274 273 272 270 270 268 269 268 268 268 268 267 268 268 270 268 268 269
294 295 293 291 290 289 288 287 286 287 287 285 285 281 279 280 280 279 278 278 278 277 274 273 272 272 272 272 270 269 270 270 270 271 271 270 270 269 269 269 268 268 269
291 291 291 291 289 287 286 285 285 285 285 285 285 283 281 281 282 280 278 276 277 277 276 275 275 273 273 273 270 270 271 272 272 273 272 271 272 271 269 269 269 269 270
289 289 290 291 289 288 288 285 285 285 283 284 284 283 282 283 282 280 278 278 277 276 276 277 277 275 275 273 272 271 273 274 273 274 273 272 272 272 271 271 271 271 272
286 286 287 287 288 287 286 285 283 283 283 285 286 285 284 283 282 281 280 280 278 276 276 277 277 276 276 275 273 272 272 273 272 273 273 272 272 272 272 271 271 271 272
285 285 286 285 285 285 285 284 283 284 283 285 285 285 285 284 284 284 284 283 280 278 277 276 275 276 278 277 274 274 273 273 273 273 274 273 274 273 272 272 272 272 272
283 284 284 284 284 283 283 282 282 283 284 284 283 283 284 283 283 283 283 283 282 280 279 278 277 278 278 279 277 276 275 275 274 274 274 274 274 273 273 273 273 272 272
281 281 281 280 281 281 282 281 281 282 282 283 283 282 283 282 280 280 280 281 281 281 280 279 278 278 278 278 276 276 276 274 273 273 274 274 273 273 273 273 273 272 272
279 278 279 279 279 279 279 279 280 282 282 283 283 282 281 281 280 279 278 279 279 279 279 279 278 278 278 277 277 276 277 274 273 274 275 275 275 275 274 273 272 272 272
278 278 278 278 278 279 280 280 281 282 283 283 283 282 281 281 280 279 278 278 279 279 278 278 278 278 277 277 278 278 277 276 274 274 275 275 275 274 273 272 271 272 273
Height
5893 5894 5894 5895 5896 5896 5897 5898 5898 5899 5899 5899 5899 5900 5900 5900 5900 5900 5900 5900 5901 5901 5901 5901 5901 5901 5901 5901 5901 5901 5901 5901 5901 5900 5900 5899 5899 5898 5898 5897 5897 5896 5895
5894 5894 5895 5895 5896 5896 5897 5897 5898 5898 5899 5899 5899 5899 5899 5899 5899 5899 5899 5900 5900 5900 5900 5900 5900 5900 5900 5900 5900 5900 5900 5900 5900 5899 5899 5898 5898 5897 5897 5896 5896 5895 5895
5894 5894 5895 5895 5896 5896 5896 5897 5897 5897 5897 5898 5898 5898 5898 5898 5898 5898 5898 5898 5898 5898 5898 5898 5898 5898 5898 5898 5899 5899 5899 5898 5898 5898 5898 5897 5896 5896 5896 5895 5894 5894 5893
5894 5895 5895 5895 5895 5895 5896 5896 5896 5896 5897 5897 5897 5897 5897 5897 5897 5897 5897 5897 5896 5896 5896 5896 5896 5896 5896 5896 5897 5897 5897 5897 5896 5896 5896 5895 5895 5895 5894 5893 5893 5892 5891
5894 5895 5895 5895 5895 5895 5895 5895 5895 5896 5896 5896 5896 5896 5896 5895 5895 5895 5895 5895 5894 5894 5894 5894 5894 5894 5894 5894 5894 5894 5894 5894 5894 5894 5894 5894 5893 5893 5892 5892 5891 5890 5890
5894 5894 5894 5894 5894 5894 5894 5894 5894 5894 5895 5895 5894 5894 5894 5894 5894 5893 5893 5893 5892 5892 5892 5892 5891 5891 5891 5891 5891 5892 5892 5892 5892 5892 5892 5892 5891 5891 5890 5890 5889 5888 5888
5894 5894 5894 5893 5893 5893 5893 5893 5893 5893 5893 5893 5893 5893 5893 5892 5892 5891 5891 5891 5890 5890 5890 5890 5889 5889 5889 5889 5889 5889 5889 5889 5889 5889 5889 5889 5888 5888 5888 5887 5887 5886 5886
5893 5893 5893 5892 5892 5892 5892 5892 5892 5891 5891 5891 5891 5891 5890 5891 5889 5889 5889 5889 5888 5888 5887 5887 5887 5886 5886 5886 5886 5886 5886 5886 5886 5886 5886 5886 5886 5885 5885 5885 5884 5884 5883
5892 5892 5892 5891 5891 5890 5890 5890 5889 5889 5889 5889 5889 5889 5888 5888 5887 5887 5886 5886 5885 5885 5885 5884 5884 5883 5883 5883 5883 5883 5883 5882 5882 5882 5882 5882 5882 5882 5882 5881 5881 5881 5880
5892 5891 5890 5890 5889 5888 5888 5887 5887 5887 5887 5886 5886 5886 5886 5885 5885 5884 5884 5883 5883 5882 5882 5881 5881 5880 5880 5880 5879 5879 5879 5879 5879 5879 5878 5878 5878 5878 5878 5878 5878 5877 5877
5890 5889 5888 5888 5887 5886 5886 5885 5885 5885 5884 5884 5883 5883 5883 5882 5882 5881 5881 5881 5880 5879 5879 5878 5877 5877 5877 5876 5876 5875 5875 5875 5875 5875 5874 5874 5874 5874 5874 5874 5874 5873 5873
5889 5888 5887 5886 5885 5884 5883 5883 5882 5881 5881 5881 5880 5880 5879 5879 5879 5878 5878 5877 5877 5876 5875 5875 5874 5873 5873 5872 5872 5871 5871 5871 5871 5871 5870 5870 5870 5870 5870 5870 5869 5869 5868
5887 5885 5884 5883 5882 5881 5880 5880 5879 5878 5877 5877 5876 5876 5875 5875 5874 5874 5874 5873 5873 5873 5872 5871 5870 5870 5869 5868 5868 5867 5866 5866 5866 5866 5866 5866 5865 5865 5865 5865 5864 5864 5864
5885 5883 5882 5880 5879 5878 5877 5876 5875 5875 5874 5873 5872 5871 5871 5870 5870 5870 5870 5869 5869 5868 5868 5867 5866 5865 5865 5864 5864 5863 5863 5862 5862 5862 5861 5861 5861 5860 5860 5860 5859 5859 5858
5882 5880 5879 5878 5876 5875 5874 5873 5871 5871 5870 5869 5868 5867 5867 5866 5866 5865 5865 5864 5864 5864 5863 5862 5862 5861 5860 5860 5859 5859 5858 5857 5857 5857 5856 5856 5855 5855 5854 5854 5854 5853 5853
5878 5877 5876 5874 5873 5872 5870 5869 5868 5867 5866 5865 5864 5863 5863 5862 5861 5861 5860 5859 5859 5858 5858 5858 5857 5856 5855 5855 5854 5853 5853 5852 5852 5851 5850 5850 5850 5849 5848 5848 5847 5847 5847
5874 5873 5872 5870 5869 5867 5866 5865 5864 5863 5862 5861 5860 5859 5858 5857 5856 5856 5855 5854 5854 5853 5853 5852 5851 5851 5850 5849 5848 5848 5847 5846 5846 5845 5845 5844 5843 5842 5842 5841 5840 5840 5840
5870 5869 5867 5866 5865 5863 5862 5861 5860 5858 5857 5856 5855 5854 5853 5852 5851 5850 5850 5849 5848 5847 5846 5846 5845 5844 5844 5843 5842 5841 5841 5840 5839 5839 5838 5837 5836 5835 5834 5834 5833 5833 5832
5865 5864 5862 5861 5860 5858 5857 5856 5855 5854 5852 5851 5850 5849 5848 5847 5846 5844 5844 5843 5842 5841 5840 5839 5839 5838 5837 5836 5835 5835 5834 5833 5832 5831 5831 5830 5829 5828 5827 5826 5826 5825 5825
5860 5859 5857 5856 5854 5853 5852 5851 5850 5849 5847 5846 5845 5843 5842 5841 5839 5838 5837 5836 5835 5834 5833 5832 5832 5831 5830 5829 5829 5828 5827 5826 5825 5824 5823 5822 5821 5820 5819 5819 5818 5817 5817
5854 5852 5851 5850 5848 5847 5846 5845 5844 5842 5841 5840 5839 5837 5836 5834 5833 5831 5830 5829 5828 5827 5826 5825 5824 5823 5823 5822 5821 5820 5819 5818 5817 5816 5815 5814 5813 5812 5811 5810 5810 5809 5808
5847 5846 5844 5843 5842 5841 5840 5838 5837 5836 5834 5833 5831 5830 5828 5827 5825 5824 5823 5821 5820 5819 5818 5817 5816 5816 5815 5814 5813 5812 5811 5810 5809 5808 5807 5806 5805 5804 5803 5802 5801 5800 5799
5840 5839 5837 5836 5834 5833 5832 5831 5830 5828 5827 5825 5824 5822 5820 5819 5817 5816 5814 5813 5812 5811 5810 5809 5809 5808 5807 5805 5805 5804 5802 5801 5800 5799 5798 5798 5796 5795 5794 5793 5792 5791 5790
5832 5831 5829 5828 5827 5825 5824 5823 5821 5820 5819 5817 5815 5814 5812 5810 5809 5807 5806 5805 5804 5803 5802 5801 5800 5799 5798 5797 5796 5795 5793 5792 5791 5790 5789 5789 5788 5786 5785 5784 5783 5782 5781
5823 5822 5820 5819 5818 5817 5815 5814 5813 5811 5810 5808 5806 5805 5803 5802 5800 5798 5797 5796 5795 5794 5793 5792 5791 5790 5789 5788 5787 5785 5784 5783 5782 5781 5780 5779 5778 5777 5776 5775 5774 5773 5772
5814 5813 5811 5810 5809 5808 5807 5805 5803 5802 5800 5799 5797 5795 5794 5792 5790 5788 5787 5787 5786 5785 5784 5783 5782 5781 5780 5778 5777 5776 5774 5773 5772 5771 5770 5769 5768 5767 5766 5765 5764 5763 5762